Home > Weather > Taiohae > Past weeks

Flag for French Polynesia Weather for the Past 2 Weeks in Taiohae, Marquesas Islands, French Polynesia

Now
88 °F

Passing clouds.


Feels Like: 100 °F
Forecast: 79 / 85 °F
Wind: 7 mph from Northwest

Location: Tahiti-Faaa

Current Time: Feb 6, 2016 at 6:58:09 PM

Latest Report: Feb 6, 2016 at 6:00 PM


Visibility: N/A

Pressure: 29.80 "Hg

Humidity: 70%

Dew point: 77 °F

Location of TaiohaeLocation

Historic Weather in Taiohae — Graph

°F

Taiohae Temperature Yesterday

Maximum temperature yesterday: 90 °F (at 1:30 PM)
Minimum temperature yesterday: 79 °F (at 5:30 AM)
Average temperature yesterday: 84 °F

High & Low Weather Summary for the Past Weeks

 TemperatureHumidityPressure
High91 °F (Feb 3, 1:00 PM)94% (Jan 30, 11:30 PM)29.98 "Hg (Jan 30, 11:30 PM)
Low75 °F (Jan 23, 4:00 AM)51% (Jan 25, 6:30 PM)29.77 "Hg (Jan 22, 5:30 PM)
Average83 °F73%29.88 "Hg
* Reported Jan 22 5:30 PM — Feb 6 5:30 PM, Taiohae, Weather by CustomWeather, © 2016

Note: Actual official high and low records may vary slightly from our data, if they occured in-between our weather recording intervals... More about our weather records

Advertising

Taiohae Weather History for the Previous 24 Hours

 ConditionsComfort  
Time TempWeatherWind HumidityBarometerVisibility
5:30 PM
Sat, Feb 6
88 °FPassing clouds.6 mph66%29.80 "HgN/A
5:00 PM88 °FPassing clouds.6 mph66%29.80 "HgN/A
4:30 PM88 °FPassing clouds.6 mph70%29.80 "HgN/A
4:00 PM88 °FPassing clouds.8 mph66%29.80 "HgN/A
3:30 PM90 °FPassing clouds.6 mph63%29.80 "HgN/A
3:00 PM91 °FPassing clouds.5 mph59%29.83 "HgN/A
2:30 PM91 °FPassing clouds.7 mph63%29.83 "HgN/A
1:30 PM91 °FPassing clouds.7 mph59%29.86 "HgN/A
1:00 PM90 °FPassing clouds.8 mph59%29.86 "HgN/A
12:30 PM88 °FPassing clouds.9 mph66%29.89 "HgN/A
11:30 AM88 °FPassing clouds.10 mph66%29.92 "HgN/A
11:00 AM88 °FPassing clouds.6 mph66%29.92 "HgN/A
10:30 AM88 °FPassing clouds.5 mph66%29.92 "HgN/A
10:00 AM88 °FPassing clouds.7 mph66%29.95 "HgN/A
9:30 AM86 °FPassing clouds.9 mph70%29.95 "HgN/A
9:00 AM86 °FPassing clouds.6 mph70%29.95 "HgN/A
8:30 AM84 °FPassing clouds.2 mph70%29.95 "HgN/A
8:00 AM84 °FPassing clouds.2 mph70%29.92 "HgN/A
7:30 AM82 °FPassing clouds.2 mph74%29.92 "HgN/A
7:00 AM81 °FPassing clouds.6 mph74%29.92 "HgN/A
6:30 AM79 °FPassing clouds.2 mph79%29.89 "HgN/A
6:00 AM79 °FWarm.No wind79%29.89 "HgN/A
5:30 AM79 °FWarm.3 mph79%29.86 "HgN/A
5:00 AM79 °FWarm.2 mph84%29.86 "HgN/A
4:30 AM81 °FWarm.2 mph74%29.86 "HgN/A
4:00 AM81 °FPassing clouds.3 mph79%29.86 "HgN/A
3:30 AM81 °FPassing clouds.1 mph74%29.86 "HgN/A
3:00 AM81 °FPassing clouds.No wind79%29.86 "HgN/A
2:30 AM81 °FPassing clouds.3 mph79%29.86 "HgN/A
2:00 AM79 °FPassing clouds.5 mph79%29.86 "HgN/A
1:30 AM81 °FPassing clouds.No wind74%29.89 "HgN/A
1:00 AM81 °FPassing clouds.5 mph74%29.89 "HgN/A
12:30 AM81 °FPassing clouds.3 mph79%29.89 "HgN/A
12:00 AM81 °FPassing clouds.1 mph79%29.89 "HgN/A
11:30 PM
Fri, Feb 5
81 °FPassing clouds.1 mph79%29.89 "HgN/A
11:00 PM82 °FPassing clouds.3 mph74%29.89 "HgN/A
10:30 PM82 °FPassing clouds.2 mph74%29.89 "HgN/A
10:00 PM82 °FPassing clouds.3 mph74%29.89 "HgN/A
9:30 PM82 °FPassing clouds.3 mph74%29.89 "HgN/A
9:00 PM84 °FPassing clouds.7 mph62%29.89 "HgN/A
8:30 PM84 °FPassing clouds.5 mph58%29.89 "HgN/A
8:00 PM86 °FPassing clouds.6 mph55%29.86 "HgN/A
7:00 PM86 °FPassing clouds.6 mph66%29.86 "HgN/A
6:30 PM88 °FPassing clouds.3 mph59%29.83 "HgN/A
6:00 PM88 °FPassing clouds.8 mph59%29.83 "HgN/A
Weather by CustomWeather, © 2016

See weather overviewHow to use our weather pages